Tracking 21679 objects as of 30-Oct-2020
HD Live streaming from Space Station
objects crossing your sky now

GALAXY 9

Track GALAXY 9 now!
GALAXY 9 is classified as:


NORAD ID: 23877
Int'l Code: 1996-033A
Perigee: 35,968.5 km
Apogee: 36,029.0 km
Inclination: 8.8 °
Period: 1,446.6 minutes
Semi major axis: 42369 km
RCS: 8.797 m2 (large)
Launch date: May 24, 1996
Source: United States (US)
Launch site: AIR FORCE EASTERN TEST RANGE (AFETR)

Voice and vision communication; 24 C-band; North America, Caribbean.
aabbcc
Your satellite tracking list
Your tracking list is empty




NASA's NSSDC Master Catalog

Two Line Element Set (TLE):
1 23877U 96033A   20304.07757993 -.00000217 +00000-0 +00000-0 0  9995
2 23877 008.7736 045.7333 0007141 106.0505 259.5506 00.99544835089236
Source of the keplerian elements: AFSPC